Time,TemperatureF,DewpointF,PressureIn,WindDirection,WindDirectionDegrees,WindSpeedMPH,WindSpeedGustMPH,Humidity,HourlyPrecipIn,Conditions,Clouds,dailyrainin,SolarRadiationWatts/m^2,SoftwareType,DateUTC
2013-03-17 00:01:00,38.9,35.1,29.91,WSW,256,0.0,6.0,86,0.00,,---,0.05,0.00,VWS V14.01,2013-03-17 07:01:00,
2013-03-17 00:06:00,38.9,34.8,29.91,SW,225,5.0,8.0,85,0.00,,---,0.00,0.00,VWS V14.01,2013-03-17 07:06:00,
2013-03-17 00:10:00,38.8,35.0,29.91,SW,233,1.0,8.0,86,0.00,,---,0.00,0.00,VWS V14.01,2013-03-17 07:10:00,
2013-03-17 00:16:00,38.8,34.7,29.91,West,280,0.0,5.0,85,0.00,,---,0.00,0.00,VWS V14.01,2013-03-17 07:16:00,
2013-03-17 00:20:00,38.8,35.0,29.92,SSW,211,0.0,5.0,86,0.00,,---,0.00,0.00,VWS V14.01,2013-03-17 07:20:00,
2013-03-17 00:25:00,38.8,35.0,29.92,South,178,2.0,5.0,86,0.00,,---,0.00,0.00,VWS V14.01,2013-03-17 07:25:00,
2013-03-17 00:30:00,38.7,35.2,29.92,West,261,2.0,5.0,87,0.00,,---,0.00,0.00,VWS V14.01,2013-03-17 07:30:00,
2013-03-17 00:35:00,38.7,34.9,29.92,SW,236,3.0,10.0,86,0.00,,---,0.00,0.00,VWS V14.01,2013-03-17 07:35:00,
2013-03-17 00:40:00,38.8,35.0,29.91,NNE,17,0.0,9.0,86,0.00,,---,0.00,0.00,VWS V14.01,2013-03-17 07:40:00,
2013-03-17 00:46:00,38.7,34.9,29.92,West,259,1.0,6.0,86,0.00,,---,0.00,0.00,VWS V14.01,2013-03-17 07:46:00,
2013-03-17 00:51:00,38.7,35.2,29.92,SSW,192,1.0,4.0,87,0.00,,---,0.00,0.00,VWS V14.01,2013-03-17 07:51:00,
2013-03-17 00:56:00,38.7,35.2,29.92,SSW,192,0.0,4.0,87,0.00,,---,0.00,0.00,VWS V14.01,2013-03-17 07:56:00,
2013-03-17 01:01:00,38.7,35.2,29.92,South,180,0.0,5.0,87,0.00,,---,0.00,0.00,VWS V14.01,2013-03-17 08:01:00,
2013-03-17 01:06:00,38.7,35.2,29.92,SSW,205,0.0,5.0,87,0.00,,---,0.00,0.00,VWS V14.01,2013-03-17 08:06:00,
2013-03-17 01:11:00,38.6,35.1,29.92,West,260,0.0,5.0,87,0.00,,---,0.00,0.00,VWS V14.01,2013-03-17 08:11:00,
2013-03-17 01:16:00,38.6,34.8,29.92,WNW,292,2.0,3.0,86,0.00,,---,0.00,0.00,VWS V14.01,2013-03-17 08:16:00,
2013-03-17 01:21:00,38.5,34.7,29.93,NW,315,1.0,4.0,86,0.00,,---,0.00,0.00,VWS V14.01,2013-03-17 08:21:00,
2013-03-17 01:26:00,38.5,34.7,29.93,WSW,241,1.0,6.0,86,0.00,,---,0.00,0.00,VWS V14.01,2013-03-17 08:26:00,
2013-03-17 01:31:00,38.4,34.9,29.93,SW,223,1.0,6.0,87,0.00,,---,0.00,0.00,VWS V14.01,2013-03-17 08:31:00,
2013-03-17 01:36:00,38.4,34.9,29.93,SSW,196,0.0,5.0,87,0.00,,---,0.00,0.00,VWS V14.01,2013-03-17 08:36:00,
2013-03-17 01:42:00,38.3,34.8,29.94,West,277,1.0,5.0,87,0.00,,---,0.00,0.00,VWS V14.01,2013-03-17 08:42:00,
2013-03-17 01:47:00,38.3,34.8,29.94,South,179,0.0,4.0,87,0.00,,---,0.00,0.00,VWS V14.01,2013-03-17 08:47:00,
2013-03-17 01:52:00,38.3,34.8,29.94,SSW,209,0.0,3.0,87,0.00,,---,0.00,0.00,VWS V14.01,2013-03-17 08:52:00,
2013-03-17 01:57:00,38.3,34.8,29.94,SSW,209,0.0,2.0,87,0.00,,---,0.00,0.00,VWS V14.01,2013-03-17 08:57:00,
2013-03-17 02:02:00,38.3,34.8,29.94,SSW,209,0.0,1.0,87,0.00,,---,0.00,0.00,VWS V14.01,2013-03-17 09:02:00,
2013-03-17 02:07:00,38.3,35.1,29.95,WSW,251,1.0,4.0,88,0.00,,---,0.00,0.00,VWS V14.01,2013-03-17 09:07:00,
2013-03-17 02:12:00,38.2,34.7,29.95,SSE,148,0.0,4.0,87,0.00,,---,0.00,0.00,VWS V14.01,2013-03-17 09:12:00,
2013-03-17 02:17:00,38.1,34.6,29.95,SSE,153,0.0,7.0,87,0.00,,---,0.00,0.00,VWS V14.01,2013-03-17 09:17:00,
2013-03-17 02:22:00,38.0,34.5,29.95,SSE,154,0.0,7.0,87,0.00,,---,0.00,0.00,VWS V14.01,2013-03-17 09:22:00,
2013-03-17 02:27:00,37.9,34.7,29.95,SSE,154,0.0,1.0,88,0.00,,---,0.00,0.00,VWS V14.01,2013-03-17 09:27:00,
2013-03-17 02:32:00,37.7,34.2,29.95,SSE,153,0.0,1.0,87,0.00,,---,0.00,0.00,VWS V14.01,2013-03-17 09:32:00,
2013-03-17 02:37:00,37.5,34.3,29.95,SE,146,1.0,4.0,88,0.00,,---,0.00,0.00,VWS V14.01,2013-03-17 09:37:00,
2013-03-17 02:42:00,37.3,34.1,29.95,WSW,240,1.0,4.0,88,0.00,,---,0.00,0.00,VWS V14.01,2013-03-17 09:42:00,
2013-03-17 02:47:00,37.1,34.2,29.95,WSW,239,0.0,4.0,89,0.00,,---,0.00,0.00,VWS V14.01,2013-03-17 09:47:00,
2013-03-17 02:52:00,37.0,34.1,29.96,SW,225,0.0,1.0,89,0.00,,---,0.00,0.00,VWS V14.01,2013-03-17 09:52:00,
2013-03-17 02:57:00,36.8,33.9,29.96,SW,227,0.0,3.0,89,0.00,,---,0.00,0.00,VWS V14.01,2013-03-17 09:57:00,
2013-03-17 03:02:00,36.7,33.8,29.96,SW,226,0.0,3.0,89,0.00,,---,0.00,0.00,VWS V14.01,2013-03-17 10:02:00,
2013-03-17 03:07:00,36.6,33.7,29.96,WSW,249,0.0,3.0,89,0.00,,---,0.00,0.00,VWS V14.01,2013-03-17 10:07:00,
2013-03-17 03:12:00,36.5,33.6,29.97,WSW,249,0.0,1.0,89,0.00,,---,0.00,0.00,VWS V14.01,2013-03-17 10:12:00,
2013-03-17 03:17:00,36.4,33.8,29.97,SE,127,0.0,2.0,90,0.00,,---,0.00,0.00,VWS V14.01,2013-03-17 10:17:00,
2013-03-17 03:22:00,36.4,33.8,29.97,SSE,147,1.0,2.0,90,0.00,,---,0.00,0.00,VWS V14.01,2013-03-17 10:22:00,
2013-03-17 03:27:00,36.4,33.8,29.97,SSE,147,0.0,2.0,90,0.00,,---,0.00,0.00,VWS V14.01,2013-03-17 10:27:00,
2013-03-17 03:32:00,36.3,33.7,29.97,ESE,105,0.0,2.0,90,0.00,,---,0.00,0.00,VWS V14.01,2013-03-17 10:32:00,
2013-03-17 03:37:00,36.3,33.7,29.97,South,181,1.0,1.0,90,0.00,,---,0.00,0.00,VWS V14.01,2013-03-17 10:37:00,
2013-03-17 03:42:00,36.2,33.6,29.97,SW,233,0.0,2.0,90,0.00,,---,0.00,0.00,VWS V14.01,2013-03-17 10:42:00,
2013-03-17 03:47:00,36.3,33.9,29.98,SW,228,0.0,5.0,91,0.00,,---,0.00,0.00,VWS V14.01,2013-03-17 10:47:00,
2013-03-17 03:52:00,36.4,34.0,29.98,SSW,197,0.0,4.0,91,0.00,,---,0.00,0.00,VWS V14.01,2013-03-17 10:52:00,
2013-03-17 03:57:00,36.5,34.1,29.98,South,189,0.0,4.0,91,0.00,,---,0.00,0.00,VWS V14.01,2013-03-17 10:57:00,
2013-03-17 04:02:00,36.6,34.0,29.98,WNW,299,0.0,3.0,90,0.00,,---,0.00,0.00,VWS V14.01,2013-03-17 11:02:00,
2013-03-17 04:07:00,36.8,34.2,29.98,SSW,198,1.0,2.0,90,0.00,,---,0.00,0.00,VWS V14.01,2013-03-17 11:07:00,
2013-03-17 04:12:00,36.9,34.2,29.99,SSW,194,0.0,2.0,90,0.00,,---,0.00,0.00,VWS V14.01,2013-03-17 11:12:00,
2013-03-17 04:17:00,37.0,34.3,29.99,SSW,192,0.0,4.0,90,0.00,,---,0.00,0.00,VWS V14.01,2013-03-17 11:17:00,
2013-03-17 04:22:00,37.1,34.4,29.99,SW,217,0.0,4.0,90,0.00,,---,0.00,0.00,VWS V14.01,2013-03-17 11:22:00,
2013-03-17 04:27:00,37.3,34.6,29.99,SSW,206,0.0,3.0,90,0.00,,---,0.00,0.00,VWS V14.01,2013-03-17 11:27:00,
2013-03-17 04:32:00,37.4,34.7,29.99,SW,230,2.0,2.0,90,0.00,,---,0.00,0.00,VWS V14.01,2013-03-17 11:32:00,
2013-03-17 04:37:00,37.5,34.6,29.99,SW,227,0.0,2.0,89,0.00,,---,0.00,0.00,VWS V14.01,2013-03-17 11:37:00,
2013-03-17 04:42:00,37.6,34.7,29.99,SSE,154,1.0,2.0,89,0.00,,---,0.00,0.00,VWS V14.01,2013-03-17 11:42:00,
2013-03-17 04:47:00,37.7,34.8,30.00,South,180,0.0,4.0,89,0.00,,---,0.00,0.00,VWS V14.01,2013-03-17 11:47:00,
2013-03-17 04:52:00,37.8,34.6,30.00,South,188,1.0,5.0,88,0.00,,---,0.00,0.00,VWS V14.01,2013-03-17 11:52:00,
2013-03-17 04:58:00,37.9,34.7,30.00,ESE,115,0.0,2.0,88,0.00,,---,0.00,0.00,VWS V14.01,2013-03-17 11:58:00,
2013-03-17 05:03:00,37.9,34.7,30.00,SSE,150,0.0,3.0,88,0.00,,---,0.00,0.00,VWS V14.01,2013-03-17 12:03:00,
2013-03-17 05:08:00,38.0,34.8,30.00,SSE,155,0.0,3.0,88,0.00,,---,0.00,0.00,VWS V14.01,2013-03-17 12:08:00,
2013-03-17 05:13:00,38.0,34.5,30.00,WSW,238,0.0,1.0,87,0.00,,---,0.00,0.00,VWS V14.01,2013-03-17 12:13:00,
2013-03-17 05:18:00,38.0,34.5,30.01,SW,222,0.0,2.0,87,0.00,,---,0.00,0.00,VWS V14.01,2013-03-17 12:18:00,
2013-03-17 05:23:00,38.0,34.8,30.01,ESE,120,4.0,4.0,88,0.00,,---,0.00,0.00,VWS V14.01,2013-03-17 12:23:00,
2013-03-17 05:28:00,38.0,34.8,30.01,SSW,213,0.0,4.0,88,0.00,,---,0.00,0.00,VWS V14.01,2013-03-17 12:28:00,
2013-03-17 05:33:00,38.0,34.5,30.01,SW,214,0.0,2.0,87,0.00,,---,0.00,0.00,VWS V14.01,2013-03-17 12:33:00,
2013-03-17 05:38:00,38.0,34.5,30.01,WSW,238,0.0,4.0,87,0.00,,---,0.00,0.00,VWS V14.01,2013-03-17 12:38:00,
2013-03-17 05:43:00,38.0,34.5,30.01,SSE,166,0.0,6.0,87,0.00,,---,0.00,0.00,VWS V14.01,2013-03-17 12:43:00,
2013-03-17 05:48:00,38.1,34.6,30.01,SSE,165,0.0,6.0,87,0.00,,---,0.00,0.00,VWS V14.01,2013-03-17 12:48:00,
2013-03-17 05:53:00,38.1,34.6,30.02,South,173,0.0,4.0,87,0.00,,---,0.00,0.00,VWS V14.01,2013-03-17 12:53:00,
2013-03-17 05:58:00,38.1,34.6,30.02,South,171,0.0,1.0,87,0.00,,---,0.00,0.00,VWS V14.01,2013-03-17 12:58:00,
2013-03-17 06:03:00,38.1,34.6,30.02,SW,223,1.0,2.0,87,0.00,,---,0.00,0.00,VWS V14.01,2013-03-17 13:03:00,
2013-03-17 06:08:00,38.1,34.6,30.03,SSW,209,0.0,2.0,87,0.00,,---,0.00,0.00,VWS V14.01,2013-03-17 13:08:00,
2013-03-17 06:13:00,38.1,34.6,30.03,WSW,238,2.0,3.0,87,0.00,,---,0.00,0.00,VWS V14.01,2013-03-17 13:13:00,
2013-03-17 06:18:00,38.1,34.6,30.03,SSE,165,1.0,3.0,87,0.00,,---,0.00,0.00,VWS V14.01,2013-03-17 13:18:00,
2013-03-17 06:23:00,38.1,34.6,30.03,SW,223,1.0,4.0,87,0.00,,---,0.00,0.00,VWS V14.01,2013-03-17 13:23:00,
2013-03-17 06:28:00,38.2,34.7,30.03,SW,223,0.0,4.0,87,0.00,,---,0.00,0.00,VWS V14.01,2013-03-17 13:28:00,
2013-03-17 06:33:00,38.2,34.7,30.03,SW,223,0.0,1.0,87,0.00,,---,0.00,0.00,VWS V14.01,2013-03-17 13:33:00,
2013-03-17 06:38:00,38.2,34.7,30.03,SW,227,0.0,2.0,87,0.00,,---,0.00,0.00,VWS V14.01,2013-03-17 13:38:00,
2013-03-17 06:43:00,38.1,34.6,30.04,WSW,252,1.0,5.0,87,0.00,,---,0.00,0.00,VWS V14.01,2013-03-17 13:43:00,
2013-03-17 06:48:00,38.1,34.6,30.04,West,276,0.0,7.0,87,0.00,,---,0.00,0.00,VWS V14.01,2013-03-17 13:48:00,
2013-03-17 06:53:00,38.1,34.6,30.04,SE,136,0.0,2.0,87,0.00,,---,0.00,0.00,VWS V14.01,2013-03-17 13:53:00,
2013-03-17 06:58:00,38.1,34.6,30.05,SSW,207,3.0,4.0,87,0.00,,---,0.00,0.00,VWS V14.01,2013-03-17 13:58:00,
2013-03-17 07:03:00,38.1,34.6,30.04,SSE,155,1.0,4.0,87,0.00,,---,0.00,0.00,VWS V14.01,2013-03-17 14:03:00,
2013-03-17 07:08:00,38.1,34.3,30.05,SW,217,0.0,4.0,86,0.00,,---,0.00,0.00,VWS V14.01,2013-03-17 14:08:00,
2013-03-17 07:13:00,38.1,34.3,30.05,West,259,1.0,5.0,86,0.00,,---,0.00,0.00,VWS V14.01,2013-03-17 14:13:00,
2013-03-17 07:18:00,38.1,34.3,30.05,WSW,257,0.0,5.0,86,0.00,,---,0.00,0.00,VWS V14.01,2013-03-17 14:18:00,
2013-03-17 07:23:00,38.0,34.2,30.05,SW,219,0.0,4.0,86,0.00,,---,0.00,0.00,VWS V14.01,2013-03-17 14:23:00,
2013-03-17 07:28:00,38.0,34.2,30.05,SW,215,0.0,2.0,86,0.00,,---,0.00,0.00,VWS V14.01,2013-03-17 14:28:00,
2013-03-17 07:33:00,38.0,34.2,30.05,North,360,0.0,7.0,86,0.00,,---,0.00,0.00,VWS V14.01,2013-03-17 14:33:00,
2013-03-17 07:38:00,38.0,34.2,30.06,West,261,0.0,7.0,86,0.00,,---,0.00,5.00,VWS V14.01,2013-03-17 14:38:00,
2013-03-17 07:43:00,38.0,34.5,30.06,SW,214,0.0,2.0,87,0.00,,---,0.00,5.00,VWS V14.01,2013-03-17 14:43:00,
2013-03-17 07:48:00,37.9,34.4,30.06,SSW,194,0.0,2.0,87,0.00,,---,0.00,5.00,VWS V14.01,2013-03-17 14:48:00,
2013-03-17 07:53:00,37.8,34.3,30.06,South,171,1.0,5.0,87,0.00,,---,0.00,5.00,VWS V14.01,2013-03-17 14:53:00,
2013-03-17 07:58:00,37.7,34.8,30.07,East,82,1.0,5.0,89,0.00,,---,0.00,7.00,VWS V14.01,2013-03-17 14:58:00,
2013-03-17 08:03:00,37.6,34.4,30.07,NNE,26,0.0,5.0,88,0.00,,---,0.00,12.00,VWS V14.01,2013-03-17 15:03:00,
2013-03-17 08:08:00,37.5,34.3,30.07,SSW,207,2.0,5.0,88,0.00,,---,0.00,16.00,VWS V14.01,2013-03-17 15:08:00,
2013-03-17 08:13:00,37.5,34.3,30.07,West,273,0.0,7.0,88,0.00,,---,0.00,19.00,VWS V14.01,2013-03-17 15:13:00,
2013-03-17 08:18:00,37.4,33.9,30.08,NE,44,0.0,5.0,87,0.00,,---,0.00,25.00,VWS V14.01,2013-03-17 15:18:00,
2013-03-17 08:23:00,37.3,33.8,30.08,West,276,2.0,5.0,87,0.00,,---,0.00,42.00,VWS V14.01,2013-03-17 15:23:00,
2013-03-17 08:28:00,37.3,34.4,30.08,NE,44,1.0,3.0,89,0.00,,---,0.00,102.00,VWS V14.01,2013-03-17 15:28:00,
2013-03-17 08:33:00,37.6,34.4,30.08,SW,221,2.0,2.0,88,0.00,,---,0.00,167.00,VWS V14.01,2013-03-17 15:33:00,
2013-03-17 08:38:00,38.3,35.3,30.08,SSW,209,1.0,4.0,89,0.00,,---,0.00,125.00,VWS V14.01,2013-03-17 15:38:00,
2013-03-17 08:43:00,39.0,35.2,30.08,WNW,301,0.0,6.0,86,0.00,,---,0.00,125.00,VWS V14.01,2013-03-17 15:43:00,
2013-03-17 08:48:00,39.2,34.8,30.09,WNW,298,5.0,6.0,84,0.00,,---,0.00,40.00,VWS V14.01,2013-03-17 15:48:00,
2013-03-17 08:53:00,39.1,35.0,30.09,SW,217,1.0,6.0,85,0.00,,---,0.00,35.00,VWS V14.01,2013-03-17 15:53:00,
2013-03-17 08:58:00,38.9,34.5,30.09,East,89,0.0,6.0,84,0.00,,---,0.00,44.00,VWS V14.01,2013-03-17 15:58:00,
2013-03-17 09:03:00,38.6,34.2,30.09,ESE,105,0.0,7.0,84,0.00,,---,0.00,44.00,VWS V14.01,2013-03-17 16:03:00,
2013-03-17 09:08:00,38.5,34.4,30.09,SE,132,0.0,7.0,85,0.00,,---,0.00,49.00,VWS V14.01,2013-03-17 16:08:00,
2013-03-17 09:13:00,38.4,34.3,30.10,SW,216,4.0,8.0,85,0.00,,---,0.00,54.00,VWS V14.01,2013-03-17 16:13:00,
2013-03-17 09:18:00,38.4,34.3,30.10,ENE,76,2.0,8.0,85,0.00,,---,0.00,60.00,VWS V14.01,2013-03-17 16:18:00,
2013-03-17 09:23:00,38.5,34.4,30.10,WSW,253,1.0,5.0,85,0.00,,---,0.00,81.00,VWS V14.01,2013-03-17 16:23:00,
2013-03-17 09:28:00,38.6,34.8,30.10,WNW,288,2.0,4.0,86,0.00,,---,0.00,88.00,VWS V14.01,2013-03-17 16:28:00,
2013-03-17 09:33:00,38.7,34.3,30.10,SSE,168,0.0,6.0,84,0.00,,---,0.00,88.00,VWS V14.01,2013-03-17 16:33:00,
2013-03-17 09:38:00,38.7,34.3,30.10,SW,225,4.0,8.0,84,0.00,,---,0.00,104.00,VWS V14.01,2013-03-17 16:38:00,
2013-03-17 09:43:00,38.8,34.7,30.10,SSE,165,1.0,8.0,85,0.00,,---,0.00,135.00,VWS V14.01,2013-03-17 16:43:00,
2013-03-17 09:48:00,38.9,34.5,30.11,WSW,253,1.0,8.0,84,0.00,,---,0.00,160.00,VWS V14.01,2013-03-17 16:48:00,
2013-03-17 09:53:00,39.1,34.1,30.11,West,273,1.0,5.0,82,0.00,,---,0.00,181.00,VWS V14.01,2013-03-17 16:53:00,
2013-03-17 09:58:00,39.3,34.9,30.11,WSW,237,2.0,9.0,84,0.00,,---,0.00,146.00,VWS V14.01,2013-03-17 16:58:00,
2013-03-17 10:03:00,39.5,34.5,30.12,SSW,195,2.0,9.0,82,0.00,,---,0.00,93.00,VWS V14.01,2013-03-17 17:03:00,
2013-03-17 10:08:00,39.6,34.9,30.12,West,261,1.0,7.0,83,0.00,,---,0.00,79.00,VWS V14.01,2013-03-17 17:08:00,
2013-03-17 10:13:00,39.5,34.5,30.11,WSW,246,3.0,8.0,82,0.00,,---,0.00,79.00,VWS V14.01,2013-03-17 17:13:00,
2013-03-17 10:18:00,39.4,34.4,30.12,ENE,78,1.0,8.0,82,0.00,,---,0.00,98.00,VWS V14.01,2013-03-17 17:18:00,
2013-03-17 10:24:00,39.5,34.5,30.12,SW,227,6.0,6.0,82,0.00,,---,0.00,137.00,VWS V14.01,2013-03-17 17:24:00,
2013-03-17 10:28:00,39.6,34.9,30.12,SW,236,0.0,6.0,83,0.00,,---,0.00,163.00,VWS V14.01,2013-03-17 17:28:00,
2013-03-17 10:33:00,40.1,35.4,30.12,SW,228,0.0,5.0,83,0.00,,---,0.00,220.00,VWS V14.01,2013-03-17 17:33:00,
2013-03-17 10:38:00,40.5,35.5,30.12,SSE,157,7.0,7.0,82,0.00,,---,0.00,309.00,VWS V14.01,2013-03-17 17:38:00,
2013-03-17 10:43:00,41.0,35.6,30.12,West,259,3.0,7.0,81,0.00,,---,0.00,134.00,VWS V14.01,2013-03-17 17:43:00,
2013-03-17 10:48:00,41.3,35.9,30.12,SSW,211,0.0,5.0,81,0.00,,---,0.00,93.00,VWS V14.01,2013-03-17 17:48:00,
2013-03-17 10:53:00,41.3,35.3,30.12,SW,230,2.0,5.0,79,0.00,,---,0.00,121.00,VWS V14.01,2013-03-17 17:53:00,
2013-03-17 10:58:00,41.3,34.7,30.12,West,265,0.0,5.0,77,0.00,,---,0.00,153.00,VWS V14.01,2013-03-17 17:58:00,
2013-03-17 11:03:00,41.4,35.4,30.13,SW,215,1.0,4.0,79,0.00,,---,0.00,107.00,VWS V14.01,2013-03-17 18:03:00,
2013-03-17 11:08:00,41.4,35.1,30.13,ESE,102,1.0,6.0,78,0.00,,---,0.00,81.00,VWS V14.01,2013-03-17 18:08:00,
2013-03-17 11:14:00,41.3,35.0,30.13,SSE,157,0.0,7.0,78,0.00,,---,0.00,79.00,VWS V14.01,2013-03-17 18:14:00,
2013-03-17 11:19:00,41.3,34.3,30.13,SSW,209,2.0,7.0,76,0.00,,---,0.00,109.00,VWS V14.01,2013-03-17 18:19:00,
2013-03-17 11:24:00,41.3,35.0,30.13,ESE,108,4.0,7.0,78,0.00,,---,0.00,165.00,VWS V14.01,2013-03-17 18:24:00,
2013-03-17 11:29:00,41.5,34.8,30.13,WSW,251,2.0,8.0,77,0.00,,---,0.00,327.00,VWS V14.01,2013-03-17 18:29:00,
2013-03-17 11:34:00,42.1,36.1,30.12,East,82,2.0,9.0,79,0.00,,---,0.00,188.00,VWS V14.01,2013-03-17 18:34:00,
2013-03-17 11:39:00,42.8,36.1,30.12,West,269,3.0,9.0,77,0.00,,---,0.00,896.00,VWS V14.01,2013-03-17 18:39:00,
2013-03-17 11:43:00,44.0,37.6,30.12,WNW,296,2.0,8.0,78,0.00,,---,0.00,315.00,VWS V14.01,2013-03-17 18:43:00,
2013-03-17 11:48:00,45.0,36.2,30.12,South,169,0.0,10.0,71,0.00,,---,0.00,258.00,VWS V14.01,2013-03-17 18:48:00,
2013-03-17 11:53:00,45.1,36.6,30.12,SSW,212,2.0,10.0,72,0.00,,---,0.00,264.00,VWS V14.01,2013-03-17 18:53:00,
2013-03-17 11:58:00,44.9,36.4,30.12,WSW,248,5.0,7.0,72,0.00,,---,0.00,253.00,VWS V14.01,2013-03-17 18:58:00,
2013-03-17 12:03:00,44.9,35.4,30.12,WNW,288,3.0,9.0,69,0.00,,---,0.00,241.00,VWS V14.01,2013-03-17 19:03:00,
2013-03-17 12:08:00,45.4,36.2,30.12,SW,236,4.0,9.0,70,0.00,,---,0.00,958.00,VWS V14.01,2013-03-17 19:08:00,
2013-03-17 12:13:00,46.4,37.5,30.12,NW,309,1.0,10.0,71,0.00,,---,0.00,761.00,VWS V14.01,2013-03-17 19:13:00,
2013-03-17 12:18:00,46.8,36.0,30.12,East,79,5.0,11.0,66,0.00,,---,0.00,237.00,VWS V14.01,2013-03-17 19:18:00,
2013-03-17 12:23:00,46.0,35.7,30.12,West,264,2.0,13.0,67,0.00,,---,0.00,860.00,VWS V14.01,2013-03-17 19:23:00,
2013-03-17 12:29:00,46.5,36.9,30.12,West,261,5.0,10.0,69,0.00,,---,0.00,218.00,VWS V14.01,2013-03-17 19:29:00,
2013-03-17 12:34:00,46.6,34.7,30.12,SSW,195,2.0,10.0,63,0.00,,---,0.00,262.00,VWS V14.01,2013-03-17 19:34:00,
2013-03-17 12:39:00,46.4,35.7,30.12,SSE,165,0.0,9.0,66,0.00,,---,0.00,262.00,VWS V14.01,2013-03-17 19:39:00,
2013-03-17 12:44:00,46.0,34.9,30.12,WSW,239,2.0,12.0,65,0.00,,---,0.00,181.00,VWS V14.01,2013-03-17 19:44:00,
2013-03-17 12:49:00,45.6,34.1,30.12,ENE,68,1.0,12.0,64,0.00,,---,0.00,200.00,VWS V14.01,2013-03-17 19:49:00,
2013-03-17 12:54:00,45.6,34.5,30.12,SSW,207,3.0,8.0,65,0.00,,---,0.00,824.00,VWS V14.01,2013-03-17 19:54:00,
2013-03-17 12:59:00,46.1,34.2,30.12,SW,217,3.0,10.0,63,0.00,,---,0.00,508.00,VWS V14.01,2013-03-17 19:59:00,
2013-03-17 13:04:00,46.7,35.2,30.12,West,263,2.0,11.0,64,0.00,,---,0.00,888.00,VWS V14.01,2013-03-17 20:04:00,
2013-03-17 13:09:00,48.2,37.4,30.12,SE,134,0.0,13.0,66,0.00,,---,0.00,914.00,VWS V14.01,2013-03-17 20:09:00,
2013-03-17 13:14:00,49.2,36.3,30.12,SW,223,3.0,13.0,61,0.00,,---,0.00,359.00,VWS V14.01,2013-03-17 20:14:00,
2013-03-17 13:18:00,48.8,36.4,30.11,SW,219,1.0,8.0,62,0.00,,---,0.00,148.00,VWS V14.01,2013-03-17 20:18:00,
2013-03-17 13:23:00,48.3,37.1,30.11,West,279,3.0,10.0,65,0.00,,---,0.00,271.00,VWS V14.01,2013-03-17 20:23:00,
2013-03-17 13:29:00,48.8,36.4,30.11,SSW,200,4.0,8.0,62,0.00,,---,0.00,926.00,VWS V14.01,2013-03-17 20:29:00,
2013-03-17 13:34:00,48.3,35.1,30.11,SSE,163,7.0,10.0,60,0.00,,---,0.00,149.00,VWS V14.01,2013-03-17 20:34:00,
2013-03-17 13:39:00,47.6,35.6,30.11,West,260,0.0,10.0,63,0.00,,---,0.00,949.00,VWS V14.01,2013-03-17 20:39:00,
2013-03-17 13:44:00,47.8,36.2,30.11,South,173,0.0,8.0,64,0.00,,---,0.00,807.00,VWS V14.01,2013-03-17 20:44:00,
2013-03-17 13:49:00,48.9,36.1,30.11,SE,141,5.0,8.0,61,0.00,,---,0.00,860.00,VWS V14.01,2013-03-17 20:49:00,
2013-03-17 13:54:00,50.0,38.3,30.11,SW,216,1.0,6.0,64,0.00,,---,0.00,844.00,VWS V14.01,2013-03-17 20:54:00,
2013-03-17 13:59:00,50.7,37.3,30.10,WSW,246,1.0,11.0,60,0.00,,---,0.00,849.00,VWS V14.01,2013-03-17 20:59:00,
2013-03-17 14:04:00,51.0,37.2,30.10,SW,219,5.0,11.0,59,0.00,,---,0.00,849.00,VWS V14.01,2013-03-17 21:04:00,
2013-03-17 14:09:00,50.2,37.3,30.10,West,276,5.0,10.0,61,0.00,,---,0.00,761.00,VWS V14.01,2013-03-17 21:09:00,
2013-03-17 14:14:00,50.0,36.2,30.10,ESE,121,4.0,10.0,59,0.00,,---,0.00,679.00,VWS V14.01,2013-03-17 21:14:00,
2013-03-17 14:19:00,49.6,35.0,30.10,East,92,6.0,13.0,57,0.00,,---,0.00,714.00,VWS V14.01,2013-03-17 21:19:00,
2013-03-17 14:24:00,49.5,34.5,30.10,ESE,123,1.0,9.0,56,0.00,,---,0.00,721.00,VWS V14.01,2013-03-17 21:24:00,
2013-03-17 14:29:00,49.9,36.6,30.10,SW,225,0.0,7.0,60,0.00,,---,0.00,657.00,VWS V14.01,2013-03-17 21:29:00,
2013-03-17 14:34:00,50.2,35.6,30.10,West,276,0.0,8.0,57,0.00,,---,0.00,679.00,VWS V14.01,2013-03-17 21:34:00,
2013-03-17 14:39:00,50.4,37.0,30.10,WNW,294,2.0,6.0,60,0.00,,---,0.00,236.00,VWS V14.01,2013-03-17 21:39:00,
2013-03-17 14:44:00,50.1,35.5,30.10,WSW,238,2.0,10.0,57,0.00,,---,0.00,227.00,VWS V14.01,2013-03-17 21:44:00,
2013-03-17 14:49:00,50.1,35.9,30.10,SE,146,6.0,13.0,58,0.00,,---,0.00,728.00,VWS V14.01,2013-03-17 21:49:00,
2013-03-17 14:54:00,50.0,34.0,30.10,SE,127,5.0,13.0,54,0.00,,---,0.00,731.00,VWS V14.01,2013-03-17 21:54:00,
2013-03-17 14:59:00,48.8,35.1,30.10,ESE,103,2.0,12.0,59,0.00,,---,0.00,564.00,VWS V14.01,2013-03-17 21:59:00,
2013-03-17 15:04:00,48.7,35.5,30.10,WSW,250,1.0,7.0,60,0.00,,---,0.00,176.00,VWS V14.01,2013-03-17 22:04:00,
2013-03-17 15:09:00,48.4,35.6,30.10,WNW,288,2.0,9.0,61,0.00,,---,0.00,508.00,VWS V14.01,2013-03-17 22:09:00,
2013-03-17 15:14:00,48.0,35.2,30.10,SSE,165,4.0,10.0,61,0.00,,---,0.00,378.00,VWS V14.01,2013-03-17 22:14:00,
2013-03-17 15:19:00,47.7,34.5,30.10,WSW,247,3.0,11.0,60,0.00,,---,0.00,237.00,VWS V14.01,2013-03-17 22:19:00,
2013-03-17 15:24:00,47.2,35.3,30.10,SSW,197,4.0,11.0,63,0.00,,---,0.00,230.00,VWS V14.01,2013-03-17 22:24:00,
2013-03-17 15:29:00,47.1,35.6,30.10,North,351,2.0,10.0,64,0.00,,---,0.00,343.00,VWS V14.01,2013-03-17 22:29:00,
2013-03-17 15:34:00,47.3,35.4,30.10,East,91,0.0,10.0,63,0.00,,---,0.00,406.00,VWS V14.01,2013-03-17 22:34:00,
2013-03-17 15:39:00,47.6,34.8,30.09,SSE,165,4.0,11.0,61,0.00,,---,0.00,357.00,VWS V14.01,2013-03-17 22:39:00,
2013-03-17 15:44:00,48.0,35.6,30.10,WNW,300,5.0,10.0,62,0.00,,---,0.00,385.00,VWS V14.01,2013-03-17 22:44:00,
2013-03-17 15:49:00,48.1,35.3,30.09,WNW,293,0.0,11.0,61,0.00,,---,0.00,299.00,VWS V14.01,2013-03-17 22:49:00,
2013-03-17 15:54:00,47.8,35.4,30.09,WSW,244,2.0,9.0,62,0.00,,---,0.00,274.00,VWS V14.01,2013-03-17 22:54:00,
2013-03-17 15:59:00,47.7,34.5,30.10,SSE,160,5.0,12.0,60,0.00,,---,0.00,316.00,VWS V14.01,2013-03-17 22:59:00,
2013-03-17 16:04:00,47.3,34.1,30.09,SSW,209,3.0,12.0,60,0.00,,---,0.00,171.00,VWS V14.01,2013-03-17 23:04:00,
2013-03-17 16:09:00,47.0,35.1,30.09,South,179,13.0,13.0,63,0.00,,---,0.00,258.00,VWS V14.01,2013-03-17 23:09:00,
2013-03-17 16:14:00,47.0,35.1,30.10,South,183,8.0,13.0,63,0.00,,---,0.00,155.00,VWS V14.01,2013-03-17 23:14:00,
2013-03-17 16:19:00,46.7,35.2,30.10,West,269,4.0,12.0,64,0.00,,---,0.00,149.00,VWS V14.01,2013-03-17 23:19:00,
2013-03-17 16:24:00,46.3,34.4,30.10,West,265,4.0,11.0,63,0.00,,---,0.00,169.00,VWS V14.01,2013-03-17 23:24:00,
2013-03-17 16:29:00,46.1,35.4,30.10,South,190,8.0,11.0,66,0.00,,---,0.00,169.00,VWS V14.01,2013-03-17 23:29:00,
2013-03-17 16:34:00,45.9,35.2,30.10,WNW,294,5.0,11.0,66,0.00,,---,0.00,169.00,VWS V14.01,2013-03-17 23:34:00,
2013-03-17 16:39:00,45.8,35.1,30.10,SW,226,5.0,11.0,66,0.00,,---,0.00,179.00,VWS V14.01,2013-03-17 23:39:00,
2013-03-17 16:44:00,45.7,35.4,30.10,South,187,0.0,11.0,67,0.00,,---,0.00,186.00,VWS V14.01,2013-03-17 23:44:00,
2013-03-17 16:49:00,45.6,34.9,30.10,SSW,213,1.0,9.0,66,0.00,,---,0.00,257.00,VWS V14.01,2013-03-17 23:49:00,
2013-03-17 16:54:00,45.6,35.3,30.10,South,172,4.0,8.0,67,0.00,,---,0.00,204.00,VWS V14.01,2013-03-17 23:54:00,
2013-03-17 16:59:00,45.5,34.4,30.10,SSW,200,3.0,11.0,65,0.00,,---,0.00,148.00,VWS V14.01,2013-03-17 23:59:00,
2013-03-17 17:04:00,45.1,34.8,30.11,SSW,202,1.0,9.0,67,0.00,,---,0.00,141.00,VWS V14.01,2013-03-18 00:04:00,
2013-03-17 17:09:00,45.0,34.3,30.10,WSW,257,4.0,12.0,66,0.00,,---,0.00,114.00,VWS V14.01,2013-03-18 00:09:00,
2013-03-17 17:14:00,44.7,34.4,30.11,SSW,211,1.0,8.0,67,0.00,,---,0.00,102.00,VWS V14.01,2013-03-18 00:14:00,
2013-03-17 17:19:00,44.5,34.6,30.11,SE,139,6.0,8.0,68,0.00,,---,0.00,102.00,VWS V14.01,2013-03-18 00:19:00,
2013-03-17 17:24:00,44.1,34.6,30.11,SSE,159,2.0,8.0,69,0.00,,---,0.00,105.00,VWS V14.01,2013-03-18 00:24:00,
2013-03-17 17:29:00,43.9,34.4,30.11,WSW,242,2.0,11.0,69,0.00,,---,0.00,84.00,VWS V14.01,2013-03-18 00:29:00,
2013-03-17 17:35:00,43.7,34.2,30.11,WSW,248,4.0,11.0,69,0.00,,---,0.00,62.00,VWS V14.01,2013-03-18 00:35:00,
2013-03-17 17:40:00,43.7,34.6,30.10,East,94,2.0,6.0,70,0.00,,---,0.00,62.00,VWS V14.01,2013-03-18 00:40:00,
2013-03-17 17:45:00,43.7,34.6,30.10,South,184,0.0,5.0,70,0.00,,---,0.00,84.00,VWS V14.01,2013-03-18 00:45:00,
2013-03-17 17:50:00,43.8,34.3,30.10,SW,221,2.0,9.0,69,0.00,,---,0.00,56.00,VWS V14.01,2013-03-18 00:50:00,
2013-03-17 17:55:00,43.7,34.6,30.10,WNW,288,0.0,9.0,70,0.00,,---,0.00,40.00,VWS V14.01,2013-03-18 00:55:00,
2013-03-17 17:59:00,43.6,33.8,30.10,WSW,239,11.0,11.0,68,0.00,,---,0.00,47.00,VWS V14.01,2013-03-18 00:59:00,
2013-03-17 18:04:00,43.4,33.2,30.10,South,186,4.0,11.0,67,0.00,,---,0.00,47.00,VWS V14.01,2013-03-18 01:04:00,
2013-03-17 18:10:00,43.3,33.1,30.10,WSW,245,0.0,10.0,67,0.00,,---,0.00,33.00,VWS V14.01,2013-03-18 01:10:00,
2013-03-17 18:15:00,43.2,33.4,30.10,WSW,254,1.0,7.0,68,0.00,,---,0.00,25.00,VWS V14.01,2013-03-18 01:15:00,
2013-03-17 18:20:00,43.1,33.6,30.10,SSE,153,1.0,7.0,69,0.00,,---,0.00,26.00,VWS V14.01,2013-03-18 01:20:00,
2013-03-17 18:25:00,42.9,33.4,30.10,West,277,7.0,12.0,69,0.00,,---,0.00,23.00,VWS V14.01,2013-03-18 01:25:00,
2013-03-17 18:30:00,42.6,33.5,30.09,South,184,0.0,10.0,70,0.00,,---,0.00,12.00,VWS V14.01,2013-03-18 01:30:00,
2013-03-17 18:35:00,42.4,33.7,30.09,SSW,192,4.0,10.0,71,0.00,,---,0.00,11.00,VWS V14.01,2013-03-18 01:35:00,
2013-03-17 18:40:00,42.3,33.9,30.09,SSW,206,1.0,7.0,72,0.00,,---,0.00,12.00,VWS V14.01,2013-03-18 01:40:00,
2013-03-17 18:45:00,42.1,33.7,30.09,WSW,248,1.0,4.0,72,0.00,,---,0.00,14.00,VWS V14.01,2013-03-18 01:45:00,
2013-03-17 18:50:00,42.0,33.6,30.09,WSW,257,7.0,7.0,72,0.00,,---,0.00,11.00,VWS V14.01,2013-03-18 01:50:00,
2013-03-17 18:55:00,41.9,33.5,30.09,SSW,210,1.0,9.0,72,0.00,,---,0.00,9.00,VWS V14.01,2013-03-18 01:55:00,
2013-03-17 19:00:00,41.7,33.3,30.10,SW,219,2.0,5.0,72,0.00,,---,0.00,5.00,VWS V14.01,2013-03-18 02:00:00,
2013-03-17 19:05:00,41.6,33.6,30.10,West,271,2.0,5.0,73,0.00,,---,0.00,0.00,VWS V14.01,2013-03-18 02:05:00,
2013-03-17 19:10:00,41.4,33.4,30.10,SW,227,2.0,6.0,73,0.00,,---,0.00,0.00,VWS V14.01,2013-03-18 02:10:00,
2013-03-17 19:15:00,41.3,33.3,30.10,WSW,252,2.0,9.0,73,0.00,,---,0.00,0.00,VWS V14.01,2013-03-18 02:15:00,
2013-03-17 19:20:00,41.2,33.2,30.10,South,189,3.0,5.0,73,0.00,,---,0.00,0.00,VWS V14.01,2013-03-18 02:20:00,
2013-03-17 19:25:00,41.1,33.5,30.10,SW,232,2.0,5.0,74,0.00,,---,0.00,0.00,VWS V14.01,2013-03-18 02:25:00,
2013-03-17 19:30:00,41.1,33.5,30.09,SW,223,0.0,5.0,74,0.00,,---,0.00,0.00,VWS V14.01,2013-03-18 02:30:00,
2013-03-17 19:35:00,41.0,34.3,30.10,West,263,0.0,7.0,77,0.00,,---,0.00,0.00,VWS V14.01,2013-03-18 02:35:00,
2013-03-17 19:40:00,41.0,35.3,30.10,WNW,289,0.0,3.0,80,0.00,,---,0.00,0.00,VWS V14.01,2013-03-18 02:40:00,
2013-03-17 19:45:00,40.8,35.4,30.10,WSW,254,2.0,3.0,81,0.00,,---,0.00,0.00,VWS V14.01,2013-03-18 02:45:00,
2013-03-17 19:50:00,40.7,35.6,30.10,WNW,290,1.0,4.0,82,0.00,,---,0.00,0.00,VWS V14.01,2013-03-18 02:50:00,
2013-03-17 19:55:00,40.5,35.5,30.10,WNW,283,1.0,4.0,82,0.00,,---,0.00,0.00,VWS V14.01,2013-03-18 02:55:00,
2013-03-17 20:00:00,40.4,35.3,30.10,WNW,283,0.0,2.0,82,0.00,,---,0.00,0.00,VWS V14.01,2013-03-18 03:00:00,
2013-03-17 20:05:00,40.2,35.5,30.10,WNW,283,0.0,2.0,83,0.00,,---,0.00,0.00,VWS V14.01,2013-03-18 03:05:00,
2013-03-17 20:10:00,40.1,35.4,30.10,WNW,300,1.0,3.0,83,0.00,,---,0.00,0.00,VWS V14.01,2013-03-18 03:10:00,
2013-03-17 20:15:00,40.1,35.4,30.10,WNW,300,0.0,3.0,83,0.00,,---,0.00,0.00,VWS V14.01,2013-03-18 03:15:00,
2013-03-17 20:20:00,40.0,35.6,30.10,NW,315,1.0,1.0,84,0.00,,---,0.00,0.00,VWS V14.01,2013-03-18 03:20:00,
2013-03-17 20:25:00,40.0,35.9,30.10,NW,315,0.0,1.0,85,0.00,,---,0.00,0.00,VWS V14.01,2013-03-18 03:25:00,
2013-03-17 20:30:00,39.9,36.1,30.10,NW,315,1.0,2.0,86,0.00,,---,0.00,0.00,VWS V14.01,2013-03-18 03:30:00,
2013-03-17 20:35:00,39.7,36.2,30.10,NE,34,1.0,4.0,87,0.00,,---,0.00,0.00,VWS V14.01,2013-03-18 03:35:00,
2013-03-17 20:40:00,39.4,35.9,30.10,NNE,32,0.0,2.0,87,0.00,,---,0.00,0.00,VWS V14.01,2013-03-18 03:40:00,
2013-03-17 20:45:00,39.2,36.0,30.10,NE,37,0.0,1.0,88,0.00,,---,0.00,0.00,VWS V14.01,2013-03-18 03:45:00,
2013-03-17 20:50:00,39.0,35.8,30.10,WNW,299,0.0,4.0,88,0.00,,---,0.00,0.00,VWS V14.01,2013-03-18 03:50:00,
2013-03-17 20:55:00,38.9,35.7,30.11,West,273,1.0,4.0,88,0.00,,---,0.00,0.00,VWS V14.01,2013-03-18 03:55:00,
2013-03-17 21:00:00,38.8,35.6,30.11,WSW,246,0.0,8.0,88,0.00,,---,0.00,0.00,VWS V14.01,2013-03-18 04:00:00,
2013-03-17 21:05:00,38.7,34.9,30.11,SSW,192,0.0,3.0,86,0.00,,---,0.00,0.00,VWS V14.01,2013-03-18 04:05:00,
2013-03-17 21:10:00,38.8,35.0,30.11,WSW,238,1.0,4.0,86,0.00,,---,0.00,0.00,VWS V14.01,2013-03-18 04:10:00,
2013-03-17 21:15:00,38.8,35.3,30.11,WSW,242,0.0,4.0,87,0.00,,---,0.00,0.00,VWS V14.01,2013-03-18 04:15:00,
2013-03-17 21:20:00,38.9,35.4,30.11,SW,228,0.0,4.0,87,0.00,,---,0.00,0.00,VWS V14.01,2013-03-18 04:20:00,
2013-03-17 21:25:00,38.9,35.1,30.11,NNE,13,1.0,4.0,86,0.00,,---,0.00,0.00,VWS V14.01,2013-03-18 04:25:00,
2013-03-17 21:30:00,38.9,35.4,30.11,North,5,0.0,4.0,87,0.00,,---,0.00,0.00,VWS V14.01,2013-03-18 04:30:00,
2013-03-17 21:35:00,38.9,35.1,30.11,SW,230,2.0,7.0,86,0.00,,---,0.00,0.00,VWS V14.01,2013-03-18 04:35:00,
2013-03-17 21:40:00,38.8,34.7,30.11,South,190,0.0,7.0,85,0.00,,---,0.00,0.00,VWS V14.01,2013-03-18 04:40:00,
2013-03-17 21:45:00,38.8,34.4,30.11,SSW,196,1.0,8.0,84,0.00,,---,0.00,0.00,VWS V14.01,2013-03-18 04:45:00,
2013-03-17 21:50:00,38.8,34.4,30.11,SW,220,2.0,8.0,84,0.00,,---,0.00,0.00,VWS V14.01,2013-03-18 04:50:00,
2013-03-17 21:55:00,38.9,34.2,30.11,WSW,238,2.0,7.0,83,0.00,,---,0.00,0.00,VWS V14.01,2013-03-18 04:55:00,
2013-03-17 22:00:00,38.9,34.5,30.11,SSW,195,2.0,7.0,84,0.00,,---,0.00,0.00,VWS V14.01,2013-03-18 05:00:00,
2013-03-17 22:05:00,38.9,34.2,30.11,West,261,1.0,11.0,83,0.00,,---,0.00,0.00,VWS V14.01,2013-03-18 05:05:00,
2013-03-17 22:10:00,38.9,34.5,30.11,South,182,1.0,11.0,84,0.00,,---,0.00,0.00,VWS V14.01,2013-03-18 05:10:00,
2013-03-17 22:15:00,38.8,34.7,30.11,West,261,0.0,5.0,85,0.01,,---,0.01,0.00,VWS V14.01,2013-03-18 05:15:00,
2013-03-17 22:20:00,38.8,34.4,30.11,SE,144,2.0,5.0,84,0.01,,---,0.01,0.00,VWS V14.01,2013-03-18 05:20:00,
2013-03-17 22:25:00,38.7,34.0,30.11,SSE,162,1.0,9.0,83,0.01,,---,0.01,0.00,VWS V14.01,2013-03-18 05:25:00,
2013-03-17 22:30:00,38.7,34.3,30.12,SW,219,3.0,9.0,84,0.01,,---,0.01,0.00,VWS V14.01,2013-03-18 05:30:00,
2013-03-17 22:35:00,38.7,34.0,30.12,WSW,255,1.0,6.0,83,0.01,,---,0.01,0.00,VWS V14.01,2013-03-18 05:35:00,
2013-03-17 22:40:00,38.7,34.0,30.12,SW,221,0.0,6.0,83,0.01,,---,0.01,0.00,VWS V14.01,2013-03-18 05:40:00,
2013-03-17 22:45:00,38.7,34.0,30.12,West,262,4.0,7.0,83,0.01,,---,0.01,0.00,VWS V14.01,2013-03-18 05:45:00,
2013-03-17 22:50:00,38.7,34.0,30.12,SE,136,6.0,7.0,83,0.01,,---,0.01,0.00,VWS V14.01,2013-03-18 05:50:00,
2013-03-17 22:55:00,38.6,33.9,30.12,South,173,0.0,7.0,83,0.01,,---,0.01,0.00,VWS V14.01,2013-03-18 05:55:00,
2013-03-17 23:00:00,38.7,33.7,30.12,SSW,207,2.0,8.0,82,0.01,,---,0.01,0.00,VWS V14.01,2013-03-18 06:00:00,
2013-03-17 23:05:00,38.7,33.7,30.12,South,175,2.0,8.0,82,0.01,,---,0.01,0.00,VWS V14.01,2013-03-18 06:05:00,
2013-03-17 23:10:00,38.7,33.7,30.12,South,188,0.0,4.0,82,0.01,,---,0.01,0.00,VWS V14.01,2013-03-18 06:10:00,
2013-03-17 23:16:00,38.7,33.7,30.12,WSW,249,2.0,5.0,82,0.00,,---,0.01,0.00,VWS V14.01,2013-03-18 06:16:00,
2013-03-17 23:21:00,38.6,33.6,30.12,West,259,4.0,5.0,82,0.00,,---,0.01,0.00,VWS V14.01,2013-03-18 06:21:00,
2013-03-17 23:26:00,38.7,34.0,30.12,SSW,201,2.0,5.0,83,0.00,,---,0.01,0.00,VWS V14.01,2013-03-18 06:26:00,
2013-03-17 23:31:00,38.6,33.6,30.12,South,170,0.0,5.0,82,0.00,,---,0.01,0.00,VWS V14.01,2013-03-18 06:31:00,
2013-03-17 23:36:00,38.6,33.6,30.12,WSW,244,0.0,6.0,82,0.00,,---,0.01,0.00,VWS V14.01,2013-03-18 06:36:00,
2013-03-17 23:41:00,38.6,33.9,30.11,SE,134,1.0,7.0,83,0.00,,---,0.01,0.00,VWS V14.01,2013-03-18 06:41:00,
2013-03-17 23:46:00,38.5,33.5,30.11,SE,133,0.0,8.0,82,0.00,,---,0.01,0.00,VWS V14.01,2013-03-18 06:46:00,
2013-03-17 23:51:00,38.5,33.5,30.11,SW,236,2.0,7.0,82,0.00,,---,0.01,0.00,VWS V14.01,2013-03-18 06:51:00,
2013-03-17 23:56:00,38.4,33.7,30.11,WSW,241,2.0,5.0,83,0.00,,---,0.01,0.00,VWS V14.01,2013-03-18 06:56:00,